Jersey, United Kingdom

9:39 AM GMT on February 21, 2018 (GMT +0000)
Jersey

Weather History for EGJJ - November, 2012

Change the Weather History Date:

Friday, November 30, 2012

  Actual Average Record
Temperature  
Mean Temperature 42 °F -  
Max Temperature 47 °F 46 °F 55 °F (2001)
Min Temperature 36 °F 40 °F 26 °F (2016)
Degree Days  
Heating Degree Days 24    
Moisture  
Dew Point 35 °F    
Average Humidity 76    
Maximum Humidity 87    
Minimum Humidity 63    
Precipitation  
Precipitation 0.00 in - - ()
Sea Level Pressure  
Sea Level Pressure 29.88 in    
Wind  
Wind Speed 4 mph ()    
Max Wind Speed 7 mph    
Max Gust Speed -    
Visibility 6.2 miles    
Events      
Averages and records for this station are not official NWS values.
T = Trace of Precipitation, MM = Missing Value Source: Averaged Metar Reports

Daily Weather History Graph

Daily Weather History Graph

Search for Another Location

Airport or City:

Trip Planner

Search our weather history database for the weather conditions in past years. The results will help you decide how hot, cold, wet, or windy it might be!

Date:

Astronomy

Nov. 30, 2012 Rise Set
Actual Time 7:41 AM GMT 4:13 PM GMT
Civil Twilight 7:04 AM GMT 4:50 PM GMT
Nautical Twilight 6:24 AM GMT 5:30 PM GMT
Astronomical Twilight 5:46 AM GMT 6:08 PM GMT
Moon 5:55 PM GMT (11/30) 9:02 AM GMT (11/30)
Length of Visible Light 9h 45m
Length of Day
8h 32m
Full, 97% of the Moon is Illuminated
Nov 30
Full
Dec 6
Last Quarter
Dec 13
New
Dec 20
First Quarter
Dec 28
Full

Hourly Weather History & Observations

Time (GMT) Temp. Windchill Dew Point Humidity Pressure Visibility Wind Dir Wind Speed Gust Speed Precip Events Conditions
12:00 AM 40 °F - 36 °F 80% 29.87 in 37 mi ESE 4.6 mph - -   Mostly Cloudy
3:00 AM 38 °F - 33 °F 76% 29.85 in 37 mi NE 4.6 mph - -   Scattered Clouds
3:50 AM 39.2 °F 35.9 °F 33.8 °F 81% 29.83 in 6.2 mi ENE 4.6 mph - N/A   Partly Cloudy
4:20 AM 39.2 °F - 33.8 °F 81% 29.83 in 6.2 mi East 2.3 mph - N/A   Partly Cloudy
4:50 AM 39.2 °F 37.0 °F 33.8 °F 81% 29.83 in 6.2 mi NNE 3.5 mph - N/A   Partly Cloudy
5:20 AM 39.2 °F 37.0 °F 32.0 °F 75% 29.83 in 6.2 mi North 3.5 mph - N/A   Scattered Clouds
5:50 AM 41.0 °F 37.1 °F 35.6 °F 81% 29.83 in 6.2 mi North 5.8 mph - N/A   Partly Cloudy
6:00 AM 40 °F - 35 °F 74% 29.86 in 37 mi NNW 6.9 mph - -   Mostly Cloudy
6:20 AM 39.2 °F 37.0 °F 35.6 °F 87% 29.83 in 6.2 mi ENE 3.5 mph - N/A   Partly Cloudy
6:50 AM 39.2 °F 35.9 °F 33.8 °F 81% 29.83 in 6.2 mi NNE 4.6 mph - N/A   Partly Cloudy
7:20 AM 39.2 °F - 33.8 °F 81% 29.83 in 6.2 mi North 2.3 mph - N/A   Partly Cloudy
7:50 AM 39.2 °F 35.9 °F 32.0 °F 75% 29.86 in 6.2 mi NNE 4.6 mph - N/A   Partly Cloudy
8:20 AM 39.2 °F 35.9 °F 33.8 °F 81% 29.86 in 6.2 mi NE 4.6 mph - N/A   Partly Cloudy
8:50 AM 39.2 °F 35.0 °F 33.8 °F 81% 29.86 in 6.2 mi East 5.8 mph - N/A   Partly Cloudy
9:00 AM 40 °F - 34 °F 73% 29.88 in 40 mi ENE 5.8 mph - -   Scattered Clouds
9:20 AM 42.8 °F 41.1 °F 35.6 °F 76% 29.86 in 6.2 mi East 3.5 mph - N/A   Partly Cloudy
9:50 AM 42.8 °F 40.1 °F 37.4 °F 81% 29.86 in 6.2 mi East 4.6 mph - N/A   Partly Cloudy
10:20 AM 44.6 °F 42.2 °F 37.4 °F 76% 29.89 in 6.2 mi ESE 4.6 mph - N/A   Partly Cloudy
10:50 AM 44.6 °F 41.4 °F 37.4 °F 76% 29.89 in 6.2 mi ESE 5.8 mph - N/A   Mostly Cloudy
11:20 AM 42.8 °F 39.3 °F 37.4 °F 81% 29.89 in 6.2 mi East 5.8 mph - N/A   Mostly Cloudy
11:50 AM 44.6 °F 42.2 °F 37.4 °F 76% 29.89 in 6.2 mi East 4.6 mph - N/A   Mostly Cloudy
12:00 PM 44 °F - 37 °F 70% 29.90 in 31 mi East 3.5 mph - -   Mostly Cloudy
12:20 PM 44.6 °F 41.4 °F 39.2 °F 81% 29.89 in 6.2 mi SE 5.8 mph - N/A   Partly Cloudy
12:50 PM 46.4 °F 45.2 °F 37.4 °F 71% 29.89 in 6.2 mi Variable 3.5 mph - N/A   Partly Cloudy
1:20 PM 46.4 °F 44.3 °F 35.6 °F 66% 29.89 in 6.2 mi ESE 4.6 mph - N/A   Partly Cloudy
1:50 PM 46.4 °F 45.2 °F 35.6 °F 66% 29.89 in 6.2 mi Variable 3.5 mph - N/A   Scattered Clouds
2:20 PM 46.4 °F - 35.6 °F 66% 29.86 in 6.2 mi SSE 1.2 mph - N/A   Scattered Clouds
2:50 PM 44.6 °F - 35.6 °F 71% 29.89 in 6.2 mi ENE 2.3 mph - N/A   Scattered Clouds
3:00 PM 44 °F - 35 °F 63% 29.90 in 44 mi SSE 1.2 mph - -   Partly Cloudy
3:20 PM 42.8 °F - 35.6 °F 76% 29.89 in 6.2 mi ENE 2.3 mph - N/A   Scattered Clouds
3:50 PM 42.8 °F - 35.6 °F 76% 29.89 in 6.2 mi East 2.3 mph - N/A   Scattered Clouds
4:20 PM 41.0 °F - 35.6 °F 81% 29.89 in 6.2 mi East 2.3 mph - N/A   Scattered Clouds
4:50 PM 41.0 °F 39.0 °F 35.6 °F 81% 29.89 in 6.2 mi ESE 3.5 mph - N/A   Scattered Clouds
5:20 PM 41.0 °F - 35.6 °F 81% 29.92 in 6.2 mi ESE 2.3 mph - N/A   Scattered Clouds
5:50 PM 41.0 °F - 35.6 °F 81% 29.92 in 6.2 mi ENE 2.3 mph - N/A   Partly Cloudy
6:00 PM 40 °F - 35 °F 75% 29.93 in 44 mi East 2.3 mph - -   Scattered Clouds
6:20 PM 41.0 °F 39.0 °F 33.8 °F 76% 29.92 in 6.2 mi ENE 3.5 mph - N/A   Partly Cloudy
6:50 PM 41.0 °F 38.0 °F 33.8 °F 76% 29.92 in 6.2 mi NE 4.6 mph - N/A   Partly Cloudy
7:20 PM 39.2 °F 35.9 °F 33.8 °F 81% 29.92 in 6.2 mi ENE 4.6 mph - N/A   Partly Cloudy
7:50 PM 41.0 °F 39.0 °F 32.0 °F 70% 29.95 in 6.2 mi ENE 3.5 mph - N/A   Partly Cloudy
8:20 PM 41.0 °F 39.0 °F 33.8 °F 76% 29.95 in 6.2 mi ENE 3.5 mph - N/A   Partly Cloudy
8:50 PM 41.0 °F - 33.8 °F 76% 29.95 in 6.2 mi ENE 2.3 mph - N/A   Scattered Clouds
9:00 PM 41 °F - 33 °F 65% 29.97 in 44 mi NE 2.3 mph - -   Partly Cloudy